Overview Statistics Trail Chart Weather Telemetry Raw packets
 

This is the latest recevied weather packets stored in our database for station/object K4WCH. If no packets are shown the sender has not sent any weather packets the latest 10 day(s).

<< 84 85 86 87 88 89 90 >>
Time Temp. Humidity Pressure Rain* Wind** Luminosity Snow
1788047216 23.89° C 97% 1017.5 hPa 0 mm - 2 W/m² -
1788046915 23.89° C 97% 1017.5 hPa 0 mm - 4 W/m² -
1788046614 23.89° C 97% 1017.7 hPa 0 mm - 6 W/m² -
1788046309 23.89° C 97% 1017.5 hPa 0 mm - 8 W/m² -
1788046007 23.89° C 97% 1017.6 hPa 0 mm - 10 W/m² -
1788045703 23.89° C 97% 1017.6 hPa 0 mm - 12 W/m² -
1788045403 23.89° C 97% 1017.6 hPa 0 mm - 14 W/m² -
1788045098 23.89° C 97% 1017.6 hPa 0.51 mm - 17 W/m² -
1788044797 23.89° C 97% 1017.8 hPa 0.51 mm - 20 W/m² -
1788044493 23.89° C 97% 1017.8 hPa 0 mm - 21 W/m² -
1788044193 23.89° C 97% 1018.1 hPa 0.51 mm - 21 W/m² -
1788043888 23.89° C 97% 1018.3 hPa 0.51 mm - 22 W/m² -
1788043588 23.89° C 97% 1017.9 hPa 0 mm - 22 W/m² -
1788043284 23.89° C 97% 1018.4 hPa 0 mm - 24 W/m² -
1788042979 23.89° C 97% 1018.3 hPa 0.51 mm - 25 W/m² -
1788042674 23.89° C 97% 1018.1 hPa 1.27 mm - 29 W/m² -
1788042373 23.89° C 97% 1018.3 hPa 2.29 mm - 28 W/m² -
1788042068 23.89° C 97% 1018.5 hPa 3.56 mm - 25 W/m² -
1788041763 23.33° C 96% 1018.7 hPa 3.05 mm - 22 W/m² -
1788041458 23.33° C 96% 1018.7 hPa 6.1 mm - 19 W/m² -
1788041158 23.33° C 96% 1019 hPa 18.54 mm - 18 W/m² -
1788040852 23.89° C 96% 1018.7 hPa 28.19 mm - 13 W/m² -
1788040550 23.33° C 95% 1019.3 hPa 23.37 mm - 12 W/m² -
1788040247 23.33° C 95% 1019.5 hPa 38.86 mm - 11 W/m² -
1788039946 24.44° C 91% 1018.9 hPa 41.4 mm - 11 W/m² -

* Rain latest hour (hover to see other rain measurements)
** Current wind speed in m/s (hover to see current wind gust speed)